Regional Weather Roundup
Issued by NWS Charleston, SC

Current Version | Previous Version | Graphics & Text | Print | Product List | Glossary On
Versions: 1 2 3 4 5 6 7 8 9 10 11 12 13 14 15 16 17 18 19 20 21 22 23 24 25 26 27 28 29 30 31 32 33 34 35 36 37 38 39 40 41 42 43 44 45 46 47 48 49 50
324 ASUS42 KCHS 291013 RWRCHS REGIONAL WEATHER ROUNDUP NATIONAL WEATHER SERVICE CHARLESTON SC 600 AM EDT FRI JUL 29 2016 NOTE: "FAIR" INDICATES FEW OR NO CLOUDS BELOW 12,000 FEET WITH NO SIGNIFICANT WEATHER AND/OR OBSTRUCTIONS TO VISIBILITY. NOT ALL STATIONS ARE QUALITY CONTROLLED. USE DATA WITH CAUTION... ESPECIALLY DEWPOINT OBSERVATIONS. SCZ027-030-031-034>040-042>050-291100- ...SOUTHEAST SOUTH CAROLINA... CITY SKY/WX TMP DP RH WIND PRES REMARKS N CHARLESTON CLEAR 80 72 76 W7 29.96R WATERFRONT PRK N/A 83 75 76 W5 29.93R HX 90 MOUNT PLEASANT FAIR 82 73 74 W5 29.96R JOHNS ISLAND FAIR 82 73 74 W6 29.96R PINOPOLIS N/A 81 75 83 W13 29.88R MONCKS CORNER FAIR 75 70 83 SW3 29.96R SUMMERVILLE NOT AVBL BEAUFORT MCAS CLEAR 81 70 69 W10 29.98R BEAUFORT ARPT FAIR 81 70 69 W9 29.97R HILTON HEAD IS NOT AVBL WALTERBORO SUNNY 79 68 69 W6 29.98R ALLENDALE FAIR 77 68 73 CALM 29.97R ...SOUTHERN MIDLANDS AND PEE DEE... CITY SKY/WX TMP DP RH WIND PRES REMARKS GEORGETOWN FAIR 79 75 89 SW6 29.95S KINGSTREE FAIR 77 72 83 CALM 29.94R ORANGEBURG CLEAR 79 69 71 W8 29.96S BARNWELL NOT AVBL AIKEN FAIR 73 70 88 SW7 30.00F MANNING FAIR 77 70 78 CALM 29.95R COLUMBIA CLEAR 78 69 73 SW5 29.94S SUMTER CLEAR 77 68 73 W9 29.92S FLORENCE CLEAR 78 69 73 SW7 29.93R MYRTLE BEACH CLEAR 81 70 69 W9 29.94F N MYRTLE BEACH CLEAR 81 76 84 SW6 29.92S $$ GAZ063-065-086>088-099>101-113>116-118-119-134>141-150-291100- ...SOUTHEAST GEORGIA... CITY SKY/WX TMP DP RH WIND PRES REMARKS SAVANNAH ARPT CLEAR 78 70 76 W8 29.99R HUNTER AAF CLEAR 78 74 87 W7 29.97R FORT STEWART CLEAR 78 71 79 W6 29.98R STATESBORO CLEAR 79 72 78 W6 30.00R SYLVANIA NOT AVBL CLAXTON FAIR 78 73 84 SW3 30.00S ...CSRA...CENTRAL AND FAR SOUTHEAST GEORGIA... CITY SKY/WX TMP DP RH WIND PRES REMARKS THOMSON NOT AVBL AUGUSTA-BUSH CLEAR 77 70 79 W5 29.97R AUGUSTA-DANIEL CLEAR 81 70 69 W6 29.99R SWAINSBORO FAIR 77 70 78 CALM 30.01S VIDALIA CLEAR 77 70 78 CALM 30.02R EASTMAN FAIR 78 65 64 W3 30.04S HAZLEHURST FAIR 79 76 90 CALM 30.01S ALMA CLEAR 75 73 93 CALM 30.02R WAYCROSS PTCLDY 80 77 90 W6 30.03R JESUP FAIR 77 77 100 CALM 30.02R BAXLEY FAIR 77 77 100 SW3 30.02R BRUNSWICK CLEAR 79 77 94 W7 30.01S SAINT SIMONS CLEAR 81 74 79 W7 30.01R $$ SCZ027-028-034-036>038-045-046-048>050-GAZ119-141-291100- ...LAKE AND SUPPLEMENTAL COASTAL OBSERVATIONS... STATION/POSITION TIME TEMP WIND PRES WAVE SWELL AIR SEA DIR/SP/G HT/PER HT/PER/DIR (UTC) (F) (DEG/KT/KT) (MB) (FT/S) (FT/S/D) WINYAH BAY 0845 82 250/ 6 1013.0 LAKE MURRAY 0900 81 240/ 10/ 14 1013.2S ACE BASIN NERRS NOT AVBL FORT PULASKI 0900 82 87 250/ 8/ 11 1015.5R SAPELO ISLAND 0900 81 260/ 8 1015.0S $$ ANZ835-935-AMZ111-154-330-350-352-354-370-450-454-472-291100- ...C-MAN AND BUOY OBSERVATIONS... STATION/POSITION TIME TEMP WIND PRES WAVE SWELL AIR SEA DIR/SP/G HT/PER HT/PER/DIR (UTC) (F) (DEG/KT/KT) (MB) (FT/S) (FT/S/D) BUOY 41004 0950 85 86 240/ 17/ 21 1013.5R 4/ 6 2/170/ 8 BUOY 41008 0950 85 86 270/ 17/ 19 1015.0R 3/ 4 2/110/ 8 FOLLY BEACH CMAN 1000 82 260/ 5/ 7 1014.6R CAPERS NEARSHORE 0908 85 84 260/ 14/ 21 1013.6S FRIPP NEARSHORE 0908 85 87 270/ 16/ 21 1014.1R STATION/POSITION TIME TEMP WIND PRES WAVE SWELL AIR SEA DIR/SP/G HT/PER HT/PER/DIR (UTC) (F) (DEG/KT/KT) (MB) (FT/S) (FT/S/D) 5E ST. MARYS GA 0901 85 N/A 2/ 4 FRYING PAN BUOY 0900 85 85 240/ 19/ 25 1013.0S BUOY 41025 0950 84 85 250/ 17/ 21 1011.3R 4/ 6 2/360/ 9 CAPE LOOKOUT NC 1000 83 240/ 12/ 15 1011.9R BUOY 41002 0950 83 84 240/ 8/ 10 1015.4R 3/ 7 3/250/ 7 BUOY 41010 0920 85 86 230/ 12/ 14 1016.6R ST AUGUSTINE FL 1000 78 84 240/ 5/ 6 1018.0R $$

USA.gov is the U.S. government's official web portal to all federal, state and local government web resources and services.